Location: Casteau
(50.5142°N, 4.0161°E)
Time: 18:16:54
(UTC+00:00)

S-56A Canister/Altair - Pass Details

Date: 08 August 2021
Orbit: 632 x 2500 km, 38.9° (Epoch: 20 September)

Event Time Altitude Azimuth Distance (km) Brightness Sun altitude
Rises 11:17:14 0° 204° (SSW) 4,575 11.9 54.9°
Reaches altitude 10° 11:20:35 10° 192° (SSW) 3,871 11.8 55.0°
Maximum altitude 11:28:52 27° 141° (SE) 3,294 11.8 55.2°
Drops below altitude 10° 11:39:20 10° 92° (E) 4,977 11.8 55.4°
Sets 11:44:20 0° 82° (E) 6,123 12.1 55.5°
